Time,TemperatureF,DewpointF,PressureIn,WindDirection,WindDirectionDegrees,WindSpeedMPH,WindSpeedGustMPH,Humidity,HourlyPrecipIn,Conditions,Clouds,dailyrainin,SoftwareType,DateUTC
2013-11-16 00:11:00,45.0,43.0,29.31,West,260,0.0,4.0,94,-99.99,,,-99.99,,2013-11-16 08:11:00,
2013-11-16 00:22:00,45.0,43.0,29.31,West,260,0.0,4.0,94,-99.99,,,-99.99,,2013-11-16 08:22:00,
2013-11-16 00:32:00,45.0,43.0,29.31,West,260,0.0,4.0,94,-99.99,,,-99.99,,2013-11-16 08:32:00,
2013-11-16 11:22:00,45.0,38.0,29.55,SSE,148,3.0,14.0,76,-99.99,,,-99.99,,2013-11-16 19:22:00,
2013-11-16 11:42:00,46.0,39.0,29.55,SSE,153,6.0,11.0,75,-99.99,,,-99.99,,2013-11-16 19:42:00,
2013-11-16 11:53:00,47.0,39.0,29.54,South,170,5.0,12.0,74,-99.99,,,-99.99,,2013-11-16 19:53:00,
2013-11-16 12:22:00,47.0,38.0,29.54,SSE,147,3.0,10.0,71,-99.99,,,-99.99,,2013-11-16 20:22:00,
2013-11-16 12:42:00,47.0,37.0,29.54,South,186,3.0,10.0,69,-99.99,,,-99.99,,2013-11-16 20:42:00,
2013-11-16 12:44:00,48.0,38.0,29.54,SSE,163,3.0,13.0,67,-99.99,,,-99.99,,2013-11-16 20:44:00,
2013-11-16 13:11:00,48.0,38.0,29.54,SSE,163,3.0,13.0,67,-99.99,,,-99.99,,2013-11-16 21:11:00,
2013-11-16 13:21:00,48.0,38.0,29.54,SSE,163,3.0,13.0,67,-99.99,,,-99.99,,2013-11-16 21:21:00,
2013-11-16 13:34:00,48.0,38.0,29.54,SSE,163,3.0,13.0,67,-99.99,,,-99.99,,2013-11-16 21:34:00,
2013-11-16 15:53:00,47.0,36.0,29.57,SSW,202,2.0,11.0,66,-99.99,,,-99.99,,2013-11-16 23:53:00,
2013-11-16 16:12:00,47.0,36.0,29.57,SSW,213,2.0,11.0,66,-99.99,,,-99.99,,2013-11-17 00:12:00,
2013-11-16 16:22:00,47.0,36.0,29.57,SSE,168,1.0,7.0,66,-99.99,,,-99.99,,2013-11-17 00:22:00,
2013-11-16 16:42:00,46.0,36.0,29.58,South,178,2.0,7.0,68,-99.99,,,-99.99,,2013-11-17 00:42:00,
2013-11-16 16:52:00,46.0,37.0,29.58,South,179,1.0,8.0,70,-99.99,,,-99.99,,2013-11-17 00:52:00,
2013-11-16 17:21:00,45.0,37.0,29.59,SSE,153,0.0,6.0,72,-99.99,,,-99.99,,2013-11-17 01:21:00,
2013-11-16 17:52:00,45.0,37.0,29.60,SSW,193,1.0,10.0,72,-99.99,,,-99.99,,2013-11-17 01:52:00,
2013-11-16 18:21:00,45.0,37.0,29.61,SSE,161,1.0,5.0,73,-99.99,,,-99.99,,2013-11-17 02:21:00,
2013-11-16 18:52:00,44.0,36.0,29.62,SSW,200,1.0,6.0,72,-99.99,,,-99.99,,2013-11-17 02:52:00,
2013-11-16 19:22:00,43.0,35.0,29.63,WSW,238,0.0,7.0,74,-99.99,,,-99.99,,2013-11-17 03:22:00,
2013-11-16 19:56:00,43.0,36.0,29.64,South,186,2.0,6.0,76,-99.99,,,-99.99,,2013-11-17 03:56:00,
2013-11-16 20:02:00,-999.0,-99.9,29.65,SW,219,1.0,13.0,-999,-99.99,,,-99.99,,2013-11-17 04:02:00,
2013-11-16 20:24:00,43.0,36.0,29.65,WSW,251,2.0,8.0,77,-99.99,,,-99.99,,2013-11-17 04:24:00,
2013-11-16 20:53:00,43.0,37.0,29.67,SSW,203,4.0,9.0,78,-99.99,,,-99.99,,2013-11-17 04:53:00,
2013-11-16 21:13:00,43.0,36.0,29.67,SSE,161,0.0,5.0,77,-99.99,,,-99.99,,2013-11-17 05:13:00,
2013-11-16 21:23:00,43.0,36.0,29.67,SSE,161,0.0,5.0,77,-99.99,,,-99.99,,2013-11-17 05:23:00,
2013-11-16 21:34:00,43.0,36.0,29.67,SSE,161,0.0,5.0,77,-99.99,,,-99.99,,2013-11-17 05:34:00,
2013-11-16 21:53:00,43.0,36.0,29.69,SSE,167,0.0,4.0,76,-99.99,,,-99.99,,2013-11-17 05:53:00,
2013-11-16 22:22:00,44.0,37.0,29.70,SSW,193,0.0,9.0,75,-99.99,,,-99.99,,2013-11-17 06:22:00,
2013-11-16 22:42:00,44.0,37.0,29.70,South,181,1.0,8.0,75,-99.99,,,-99.99,,2013-11-17 06:42:00,
2013-11-16 22:52:00,44.0,36.0,29.70,SSE,165,2.0,6.0,74,-99.99,,,-99.99,,2013-11-17 06:52:00,
2013-11-16 23:21:00,43.0,36.0,29.71,SSW,197,0.0,5.0,77,-99.99,,,-99.99,,2013-11-17 07:21:00,
2013-11-16 23:42:00,43.0,36.0,29.72,SSW,209,3.0,6.0,75,-99.99,,,-99.99,,2013-11-17 07:42:00,
2013-11-16 23:53:00,44.0,37.0,29.72,SW,225,0.0,4.0,76,-99.99,,,-99.99,,2013-11-17 07:53:00,